This demonstration page uses our WeatherBlox Daily Observations layout. Learn more.

Left ArrowRight Arrow

44.31136, -96.79839

Hourly Observations for June 23, 2019

Temp ( °F °C ) Dew Point ( °F °C ) Humidity (%) Winds ( mph kmh ) Pressure ( in mb ) Visibility ( mi km ) Precip ( " mm )
12:56 am 00:56 Mostly Cloudy with Mist and Fog 61 16.1 61 16.1 100 100 Calm 29.96 1015 4 6 0.00 0.00
1:56 am 01:56 Cloudy with Mist and Fog 61 16.1 61 16.1 100 100 Calm 29.96 1015 5 8 0.00 0.00
2:13 am 02:13 Cloudy with Mist and Fog 61 16 61 16 100 100 NW 5 7 29.90 1013 2 3 0.00 0.00
2:26 am 02:26 Cloudy with Mist and Fog 61 16 61 16 100 100 Calm 29.89 1012 3 5 0.01 0.25
2:56 am 02:56 Cloudy with Mist and Fog 60 15.6 60 15.6 100 100 undefined N/A 29.94 1014 3 5 0.01 0.25
3:56 am 03:56 Cloudy with Mist and Fog 60 15.6 60 15.6 100 100 NNE 3 6 29.93 1014 4 6 0.00 0.00
4:56 am 04:56 Cloudy with Mist and Fog 60 15.6 60 15.6 100 100 NNW 7 11 29.91 1013 4 6 0.00 0.00
5:56 am 05:56 Sunny 60 15.6 59 15 96 96 NNE 3 6 29.88 1012 7 11 0.00 0.00
6:56 am 06:56 Mostly Cloudy with Mist and Fog 60 15.6 59 15 96 96 NNW 9 15 29.88 1012 6 10 0.01 0.25
7:16 am 07:16 Mostly Cloudy with Mist and Fog 61 16 61 16 100 100 NNW 8 13 29.82 1010 5 8 0.00 0.00
7:56 am 07:56 Cloudy with Mist and Fog 62 16.7 61 16.1 96 96 NNW 15 24 29.88 1012 5 8 0.00 0.00
8:03 am 08:03 Cloudy with Mist and Fog 61 16 61 16 100 100 N 14 22 29.82 1010 4 6 0.00 0.00
8:49 am 08:49 Cloudy 63 17 59 15 88 88 N 12 19 29.83 1010 10 16 0.00 0.00
8:56 am 08:56 Cloudy 63 17.2 59 15 87 87 NNE 9 15 29.89 1012 10 16 0.00 0.00
9:56 am 09:56 Cloudy 65 18.3 56 13.3 73 73 NNE 9 15 29.88 1012 10 16 0.00 0.00
10:56 am 10:56 Mostly Cloudy 67 19.4 55 12.8 66 66 NE 10 17 29.86 1011 10 16 0.00 0.00
11:56 am 11:56 Cloudy 67 19.4 55 12.8 66 66 NE 9 15 29.86 1011 10 16 0.00 0.00
12:56 pm 12:56 Cloudy 67 19.4 54 12.2 63 63 NE 8 13 29.85 1011 10 16 0.00 0.00
1:56 pm 13:56 Cloudy with Light Rain 66 18.9 56 13.3 70 70 NNW 7 11 29.85 1011 10 16 0.00 0.03
2:56 pm 14:56 Mostly Cloudy 66 18.9 57 13.9 73 73 NNW 9 15 29.84 1011 10 16 0.00 0.03
3:56 pm 15:56 Cloudy 68 20 57 13.9 68 68 N 8 13 29.83 1010 10 16 0.00 0.00
4:56 pm 16:56 Cloudy 66 18.9 60 15.6 81 81 NNW 7 11 29.82 1010 10 16 0.00 0.00
5:56 pm 17:56 Cloudy 65 18.3 59 15 81 81 WNW 7 11 29.81 1010 10 16 0.00 0.03
6:56 pm 18:56 Cloudy 65 18.3 59 15 81 81 NW 6 9 29.80 1009 10 16 0.00 0.00
7:56 pm 19:56 Cloudy with Light Rain 62 16.7 60 15.6 93 93 NW 9 15 29.78 1009 10 16 0.00 0.03
8:56 pm 20:56 Cloudy with Light Rain 62 16.7 61 16.1 96 96 NW 7 11 29.78 1009 10 16 0.02 0.51
9:56 pm 21:56 Cloudy with Light Rain 61 16.1 57 13.9 87 87 NNW 6 9 29.78 1009 10 16 0.01 0.25
10:56 pm 22:56 Clear 59 15 54 12.2 83 83 NW 10 17 29.77 1008 10 16 0.01 0.25
11:56 pm 23:56 Cloudy 58 14.4 53 11.7 84 84 NNW 5 7 29.77 1008 10 16 0.00 0.00

Powered by AerisWeather